2020/11/26,44800,44800,44800,44800
2020/11/27,44800,44800,44800,44800
2020/11/30,44800,44800,44800,44800
2020/12/01,44800,44800,44800,44800
2020/12/02,44800,44800,44800,44800
2020/12/03,44800,44800,44800,44800
2020/12/04,44800,44800,44800,44800
2020/12/07,44800,44800,44800,44800
2020/12/08,44800,44800,44800,44800
2020/12/09,44800,44800,44800,44800
2020/12/10,44800,44800,44800,44800
2020/12/11,44800,44800,44800,44800
2020/12/14,44800,44800,44800,44800
2020/12/15,44800,44800,44800,44800
2020/12/16,44800,44800,44800,44800
2020/12/17,44800,44800,44800,44800
2020/12/18,44800,44800,44800,44800
2020/12/21,44800,44800,44800,44800
2020/12/22,44800,44800,44800,44800
2020/12/23,44800,44800,44800,44800
2020/12/24,44800,44800,44800,44800
2020/12/25,44800,44800,44800,44800
2020/12/28,45500,45500,45500,45500
2020/12/29,45500,45500,45500,45500
2020/12/30,45500,45500,45500,45500
2021/01/04,45500,45500,45500,45500
2021/01/05,45500,45500,45500,45500
2021/01/06,46700,46700,46700,46700
2021/01/07,46700,46700,46700,46700
2021/01/08,46700,46700,46700,46700
2021/01/12,46700,46700,46700,46700
2021/01/13,46700,46700,46700,46700
2021/01/14,46700,46700,46700,46700
2021/01/15,46700,46700,46700,46700
2021/01/18,46700,46700,46700,46700
2021/01/19,46700,46700,46700,46700
2021/01/20,46700,46700,46700,46700
2021/01/21,46700,46700,46700,46700
2021/01/22,46700,46700,46700,46700
2021/01/25,46700,46700,46700,46700
2021/01/26,46700,46700,46700,46700
2021/01/27,48000,48000,48000,48000
2021/01/28,48000,48000,48000,48000
2021/01/29,48000,48000,48000,48000
2021/02/01,48000,48000,48000,48000
2021/02/02,48000,48000,48000,48000
2021/02/03,48000,48000,48000,48000
2021/02/04,48000,48000,48000,48000
2021/02/05,50000,50000,50000,50000
2021/02/08,50000,50000,50000,50000
2021/02/09,50000,50000,50000,50000
2021/02/10,50000,50000,50000,50000
2021/02/12,50000,50000,50000,50000
2021/02/15,52000,52000,52000,52000
2021/02/16,52000,52000,52000,52000
2021/02/17,52000,52000,52000,52000
2021/02/18,52000,52000,52000,52000
2021/02/19,52000,52000,52000,52000
2021/02/22,52000,52000,52000,52000
2021/02/24,52000,52000,52000,52000
2021/02/25,54400,54400,54400,54400
2021/02/26,54400,54400,54400,54400
2021/03/01,54400,54400,54400,54400
2021/03/02,54400,54400,54400,54400
2021/03/03,54400,54400,54400,54400
2021/03/04,54400,54400,54400,54400
2021/03/05,57200,57200,57200,57200
2021/03/08,59920,59920,59920,59920
2021/03/09,59920,59920,59920,59920
2021/03/10,59920,59920,59920,59920
2021/03/11,59920,59920,59920,59920
2021/03/12,59920,59920,59920,59920
2021/03/15,59920,59920,59920,59920
2021/03/16,59920,59920,59920,59920
2021/03/17,59920,59920,59920,59920
2021/03/18,59920,59920,59920,59920
2021/03/19,56700,56700,56700,56700
2021/03/22,56700,56700,56700,56700
2021/03/23,56700,56700,56700,56700
2021/03/24,56900,56900,56000,56000
2021/03/25,56000,56000,56000,56000
2021/03/26,56000,56000,56000,56000
2021/03/29,56000,56000,56000,56000
2021/03/30,57500,57500,57500,57500
2021/03/31,57500,57500,57500,57500
2021/04/01,57500,57500,57500,57500
2021/04/02,58100,58100,58100,58100
2021/04/05,58100,58100,58100,58100
2021/04/06,58100,58100,58100,58100
2021/04/07,58100,58100,58100,58100
2021/04/08,58100,58100,58100,58100
2021/04/09,58100,58100,58100,58100
2021/04/12,58100,58100,58100,58100
2021/04/13,58100,58100,58100,58100
2021/04/14,58100,58100,58100,58100
2021/04/15,58100,58100,58100,58100
2021/04/16,58100,58100,58100,58100
2021/04/19,58100,58100,58100,58100
2021/04/20,58100,58100,58100,58100
2021/04/21,58100,58100,58100,58100
2021/04/22,58100,58100,58100,58100
2021/04/23,58100,58100,58100,58100
2021/04/26,58100,58100,58100,58100
2021/04/27,58100,58100,58100,58100
2021/04/28,58100,58100,58100,58100
2021/04/30,58100,58100,58100,58100
2021/05/06,60700,60700,60700,60700
2021/05/07,60200,60200,60200,60200
2021/05/10,60200,60200,60200,60200
2021/05/11,60200,60200,60200,60200
2021/05/12,60900,60900,60900,60900
2021/05/13,60900,60900,60900,60900
2021/05/14,60200,60200,60200,60200
2021/05/17,60200,60200,60200,60200
2021/05/18,60600,60800,60600,60800
2021/05/19,60000,60000,60000,60000
2021/05/20,60000,60400,60000,60400
2021/05/21,59200,59500,58600,59500
2021/05/24,60000,60000,59800,59800
2021/05/25,60300,61200,60000,60290
